Left ArrowRight Arrow

Hourly Observations for February 2, 2017

Temp ( °F °C ) Dew Point ( °F °C ) Humidity (%) Winds ( mph kmh ) Pressure ( in mb ) Visibility ( mi km ) Precip ( " mm )
12:53 am 00:53 Mostly Clear 40 4.4 29 -1.7 65 65 NNW 5 7 30.17 1022 10 16 0.00 0.00
1:53 am 01:53 Clear 36 2.2 28 -2.2 73 73 N 5 7 30.18 1022 10 16 0.00 0.00
2:53 am 02:53 Clear 35 1.7 26 -3.3 70 70 N 3 6 30.20 1023 10 16 0.00 0.00
3:53 am 03:53 Clear 34 1.1 25 -3.9 70 70 Calm 30.22 1023 10 16 0.00 0.00
4:53 am 04:53 Clear 31 -0.6 23 -5 72 72 Calm 30.24 1024 10 16 0.00 0.00
5:53 am 05:53 Mostly Clear 29 -1.7 23 -5 78 78 Calm 30.24 1024 10 16 0.00 0.00
6:53 am 06:53 Mostly Clear 30 -1.1 25 -3.9 82 82 Calm 30.27 1025 10 16 0.00 0.00
7:53 am 07:53 Sunny 30 -1.1 23 -5 75 75 Calm 30.29 1026 10 16 0.00 0.00
8:53 am 08:53 Sunny 34 1.1 25 -3.9 70 70 N 5 7 30.31 1027 10 16 0.00 0.00
9:53 am 09:53 Sunny 36 2.2 25 -3.9 64 64 NNW 7 11 30.33 1027 10 16 0.00 0.00
10:53 am 10:53 Sunny 39 3.9 24 -4.4 55 55 VRB 5 7 30.33 1027 10 16 0.00 0.00
11:53 am 11:53 Mostly Cloudy 40 4.4 21 -6.1 47 47 Calm 30.33 1027 10 16 0.00 0.00
12:53 pm 12:53 Mostly Sunny 42 5.6 21 -6.1 43 43 NW 5 7 30.30 1026 10 16 0.00 0.00
1:53 pm 13:53 Mostly Sunny 43 6.1 12 -11.1 28 28 Calm 30.28 1026 10 16 0.00 0.00
2:53 pm 14:53 Sunny 44 6.7 8 -13.3 23 23 Calm 30.27 1025 10 16 0.00 0.00
3:53 pm 15:53 Cloudy 44 6.7 9 -12.8 24 24 NW 9 15 30.27 1025 10 16 0.00 0.00
4:53 pm 16:53 Cloudy 43 6.1 8 -13.3 24 24 NNW 7 11 30.29 1026 10 16 0.00 0.00
5:53 pm 17:53 Cloudy 41 5 10 -12.2 28 28 NW 9 15 30.30 1026 10 16 0.00 0.00
6:53 pm 18:53 Mostly Cloudy 38 3.3 12 -11.1 34 34 N 6 9 30.29 1026 10 16 0.00 0.00
7:53 pm 19:53 Clear 36 2.2 13 -10.6 39 39 NNW 5 7 30.32 1027 10 16 0.00 0.00
8:53 pm 20:53 Clear 35 1.7 10 -12.2 35 35 N 6 9 30.32 1027 10 16 0.00 0.00
9:53 pm 21:53 Clear 33 0.6 10 -12.2 38 38 Calm 30.31 1027 10 16 0.00 0.00
10:53 pm 22:53 Clear 30 -1.1 13 -10.6 49 49 Calm 30.32 1027 10 16 0.00 0.00
11:53 pm 23:53 Cloudy 31 -0.6 14 -10 49 49 N 7 11 30.32 1027 10 16 0.00 0.00

Powered by Vaisala Xweather